TimeCDT,TemperatureF,Dew PointF,Humidity,Sea Level PressureIn,VisibilityMPH,Wind Direction,Wind SpeedMPH,Gust SpeedMPH,PrecipitationIn,Events,Conditions,WindDirDegrees,DateUTC
12:53 AM,75.9,72.0,87,29.93,10.0,South,8.1,-,N/A,,Clear,170,2013-05-31 05:53:00
1:53 AM,73.9,72.0,93,29.92,10.0,SSE,6.9,-,N/A,,Clear,150,2013-05-31 06:53:00
2:53 AM,72.0,71.1,97,29.91,10.0,SE,5.8,-,N/A,,Clear,140,2013-05-31 07:53:00
3:46 AM,73.4,71.6,94,29.89,10.0,SSE,5.8,-,N/A,,Mostly Cloudy,150,2013-05-31 08:46:00
3:53 AM,73.0,72.0,96,29.90,10.0,SSE,4.6,-,N/A,,Mostly Cloudy,150,2013-05-31 08:53:00
4:25 AM,73.4,73.4,100,29.91,10.0,SE,5.8,-,N/A,,Overcast,130,2013-05-31 09:25:00
4:33 AM,73.4,73.4,100,29.92,10.0,ESE,6.9,-,N/A,,Overcast,120,2013-05-31 09:33:00
4:53 AM,75.0,73.0,94,29.93,10.0,SE,8.1,-,N/A,,Overcast,130,2013-05-31 09:53:00
5:53 AM,75.0,73.0,94,29.94,9.0,SE,4.6,-,0.00,Rain,Light Rain,140,2013-05-31 10:53:00
6:45 AM,75.2,73.4,94,29.94,9.0,SE,10.4,-,0.00,,Scattered Clouds,140,2013-05-31 11:45:00
6:53 AM,75.0,73.9,96,29.94,9.0,SE,9.2,-,0.00,,Mostly Cloudy,140,2013-05-31 11:53:00
7:39 AM,75.2,73.4,94,29.95,10.0,SE,9.2,-,0.00,,Overcast,140,2013-05-31 12:39:00
7:53 AM,77.0,75.0,94,29.96,10.0,SE,12.7,-,0.00,,Overcast,140,2013-05-31 12:53:00
8:27 AM,78.8,75.2,89,29.95,10.0,SE,9.2,-,N/A,,Overcast,140,2013-05-31 13:27:00
8:53 AM,79.0,75.0,88,29.96,10.0,SSE,9.2,-,N/A,,Overcast,150,2013-05-31 13:53:00
9:29 AM,80.6,75.2,84,29.94,10.0,South,6.9,17.3,N/A,,Overcast,180,2013-05-31 14:29:00
9:53 AM,81.0,73.9,79,29.95,10.0,South,8.1,16.1,N/A,,Overcast,170,2013-05-31 14:53:00
10:26 AM,82.4,75.2,79,29.93,10.0,SSE,11.5,-,N/A,,Mostly Cloudy,150,2013-05-31 15:26:00
10:53 AM,82.9,73.9,74,29.94,10.0,South,10.4,-,N/A,,Overcast,180,2013-05-31 15:53:00
11:53 AM,84.0,75.0,74,29.93,10.0,SSE,11.5,-,N/A,,Overcast,150,2013-05-31 16:53:00
12:53 PM,84.9,75.0,72,29.93,10.0,SSE,9.2,-,0.00,,Overcast,160,2013-05-31 17:53:00
1:53 PM,87.1,77.0,72,29.92,10.0,South,15.0,20.7,0.06,,Partly Cloudy,190,2013-05-31 18:53:00
2:53 PM,88.0,73.9,63,29.90,10.0,South,15.0,20.7,N/A,,Mostly Cloudy,180,2013-05-31 19:53:00
3:53 PM,87.1,73.0,63,29.89,10.0,South,16.1,21.9,N/A,,Mostly Cloudy,180,2013-05-31 20:53:00
4:53 PM,86.0,73.9,67,29.88,10.0,South,11.5,-,N/A,,Overcast,180,2013-05-31 21:53:00
5:53 PM,84.0,73.0,69,29.88,10.0,South,9.2,-,N/A,,Overcast,170,2013-05-31 22:53:00
6:53 PM,82.9,73.9,74,29.88,10.0,South,6.9,-,N/A,,Overcast,170,2013-05-31 23:53:00
7:53 PM,82.0,72.0,71,29.88,10.0,South,8.1,-,N/A,,Overcast,180,2013-06-01 00:53:00
8:53 PM,80.1,73.0,79,29.88,10.0,South,5.8,-,N/A,,Overcast,170,2013-06-01 01:53:00
9:53 PM,79.0,73.9,84,29.88,10.0,SSE,5.8,-,N/A,,Mostly Cloudy,160,2013-06-01 02:53:00
10:53 PM,78.1,73.9,87,29.89,10.0,SSE,5.8,-,N/A,,Clear,160,2013-06-01 03:53:00
11:53 PM,77.0,73.9,90,29.92,10.0,SSE,4.6,-,N/A,,Partly Cloudy,150,2013-06-01 04:53:00